User: anonymous   Login
Location: Pabrico
(37.5827°N, 122.0063°W)
Time: 12:15:50
(UTC+00:00)
Language:

ARGOS - Orbit

View from above orbital plane
View from above orbital plane
View from above satellite
View from above satellite

Ground track
Ground track

The orbit data is extracted from the following two-line orbital elements,

1 25634U 99008A   24173.93033264  .00000101  00000-0  67236-4 0  9993
2 25634  98.4184 160.5162 0009948 350.9735   9.1262 14.19675125311386
Epoch (UTC): 21 June 2024 22:19:40
Eccentricity: 0.0009948
inclination: 98.4184°
perigee height: 819 km
apogee height: 833 km
right ascension of ascending node: 160.5162°
argument of perigee: 350.9735°
revolutions per day: 14.19675125
mean anomaly at epoch: 9.1262°
orbit number at epoch: 31138

The dashed part of the orbit path shows where the satellite is in the earth's shadow,  

DLR